Regional Weather Roundup
Issued by NWS

Home | Current Version | Previous Version | Text Only | Print | Product List | Glossary Off
Versions: 1 2 3 4 5 6 7 8 9 10 11 12 13 14 15 16 17 18 19 20 21 22 23 24 25 26 27 28 29 30 31 32 33 34 35 36 37 38 39 40 41 42 43 44 45 46 47 48 49 50

000
ASUS43 KTOP 280408
RWRKS

WEATHER ROUNDUP FOR KANSAS
NATIONAL WEATHER SERVICE GOODLAND KS
1000 PM CST MON FEB 27 2017

NOTE:  "FAIR" INDICATES FEW OR NO CLOUDS BELOW 12,000 FEET WITH NO
SIGNIFICANT WEATHER AND/OR OBSTRUCTIONS TO VISIBILITY.

KSZ001>006-013>018-027>032-041>047-280500-
NORTHWEST KANSAS

CITY           SKY/WX    TMP DP  RH WIND       PRES   REMARKS
GOODLAND       CLOUDY    50  16  25 SW22G32   29.59R
HAYS             N/A     42  38  85 SE8       29.61F
HILL CITY      CLOUDY    43  25  49 S6        29.62R
RUSSELL        CLEAR     47  41  80 S10       29.60F
$$

KSZ061>065-074>080-084>089-280500-
SOUTHWEST KANSAS

CITY           SKY/WX    TMP DP  RH WIND       PRES   REMARKS
DODGE CITY     CLEAR     56  19  23 S17G26    29.67R
ELKHART          N/A     50  10  20 SW8         N/A
GARDEN CITY    CLOUDY    41  17  38 W9        29.68R
GREAT BEND     CLEAR     54  34  46 S20       29.64R
LIBERAL        CLEAR     54  12  19 SW15      29.74R
PRATT          CLEAR     51  34  52 S16       29.69R
$$

KSZ066>073-081>083-090>101-280500-
SOUTHEAST KANSAS

CITY           SKY/WX    TMP DP  RH WIND       PRES   REMARKS
CHANUTE        CLOUDY    63  56  78 S16G24    29.80F
COFFEYVILLE    CLOUDY    63  58  83 S18       29.82S
HUTCHINSON     CLEAR     55  39  54 S14       29.68S
MEDICINE LODGE   N/A     55  38  52 S13       29.70R
NEWTON         CLEAR     54  51  90 S17       29.70S
PARSONS        CLOUDY    64  58  80 S14G26    29.82S
WICHITA INTL   PTCLDY    57  54  89 S20G26    29.71S
WICHITA JABRA  PTCLDY    57  55  93 S18G24    29.72S
WICHITA MCCONL PTCLDY    57  55  94 S22G28    29.72S
WINFIELD       CLOUDY    60  58  92 S18G29    29.77R
$$

KSZ007>012-019>026-033>040-048>060-102>105-280500-
NORTHEAST KANSAS

CITY           SKY/WX    TMP DP  RH WIND       PRES   REMARKS
CONCORDIA      CLOUDY    48  42  80 E8        29.65F
EMPORIA        MOCLDY    59  55  87 S21G30    29.73F
LAWRENCE       CLOUDY    51  48  89 SE8       29.75F
MANHATTAN      PTCLDY    57  49  74 S14       29.68F
MARYSVILLE     CLOUDY    46  43  87 SE3       29.70S
OLATHE IND     PTCLDY    58  51  78 S12       29.77F
OLATHE EXE     CLOUDY    54  50  86 S10       29.78S
SALINA         CLEAR     54  44  69 S13       29.65F
TOPEKA BILLARD PTCLDY    59  54  83 S13G22    29.72F
TOPEKA FORBES  CLOUDY    60  53  77 S15       29.73F
$$




USA.gov is the U.S. government's official web portal to all federal, state and local government web resources and services.